Date String (YYYY-MM-DD hh:mm:ss) UTC,Instrument flags,absolute air pressure of the measurement (hPa),sample flow rate (lpm),inlet stack bypass flow (lpm),air temperature of the measurement (°C),ambient temperature measured by the external sensor (°C),aerosol sample conditioner tube jacket temperature (°C),OPC LED temperature (°C),internal box temperature (°C),relative humidity of the measurement (%),span deviation,mass concentration of particles derived from Lorenz-Mie calculation of OPC scattering (μg/m³),mass concentration of particles derived from Lorenz-Mie calculation of OPC scattering (μg/m³),mass concentration of particles derived from Lorenz-Mie calculation of OPC scattering (μg/m³)
DateTimeUTC,F1_M11,P_M11,Q1_M11,Q2_M11,T1_M11,T2_M11,T3_M11,T4_M11,T5_M11,U1_M11,ZSPAN_M11,X0_M11,X2_M11,X1_M11
2023-12-07 01:00:00,SystemResetWarning,0828.6,5.00,000.00,025.9,025.2,000.0,034.0,027.5,15.6,0000.0,0013.34,0006.36,0005.73
2023-12-07 01:01:00,SystemResetWarning,0828.6,5.00,000.00,025.9,025.2,000.0,034.0,027.5,15.6,0000.0,0013.44,0006.35,0005.69
2023-12-07 01:02:00,SystemResetWarning,0828.6,5.01,000.00,025.9,025.2,000.0,034.0,027.5,15.6,0000.0,0013.42,0006.31,0005.65
2023-12-07 01:03:00,SystemResetWarning,0828.6,5.01,000.00,026.0,025.2,000.0,034.0,027.5,15.4,0000.0,0012.96,0006.19,0005.57
2023-12-07 01:04:00,SystemResetWarning,0828.6,5.00,000.00,026.0,025.2,000.0,034.1,027.5,15.2,0000.0,0012.24,0006.15,0005.52
2023-12-07 01:05:00,SystemResetWarning,0828.6,4.99,000.00,026.0,025.0,000.0,034.1,027.6,15.3,0000.0,0011.69,0006.13,0005.48
2023-12-07 01:06:00,SystemResetWarning,0828.6,4.99,000.00,026.0,023.2,000.0,034.1,027.4,15.2,0000.0,0012.13,0006.10,0005.45
2023-12-07 01:07:00,SystemResetWarning,0828.6,5.00,000.00,025.9,022.1,000.0,034.0,027.2,15.3,0000.0,0011.75,0006.07,0005.43
2023-12-07 01:08:00,SystemResetWarning,0828.6,5.01,000.00,025.7,022.1,000.0,034.0,026.5,15.4,0000.0,0012.17,0006.07,0005.44
2023-12-07 01:09:00,SystemResetWarning,0828.5,5.01,000.00,025.5,022.4,000.0,033.9,026.4,15.5,0000.0,0011.68,0006.08,0005.45
2023-12-07 01:10:00,SystemResetWarning,0828.5,4.99,000.00,025.5,022.8,000.0,033.9,026.5,15.6,0000.0,0011.49,0006.05,0005.47
2023-12-07 01:11:00,SystemResetWarning,0828.6,5.00,000.00,025.5,023.2,000.0,033.9,026.6,15.7,0000.0,0011.52,0006.06,0005.49
2023-12-07 01:12:00,SystemResetWarning,0828.6,5.00,000.00,025.4,023.5,000.0,033.8,026.7,15.7,0000.0,0011.46,0006.06,0005.50
2023-12-07 01:13:00,SystemResetWarning,0828.5,5.00,000.00,025.4,023.7,000.0,033.8,026.8,15.7,0000.0,0011.63,0006.04,0005.50
2023-12-07 01:14:00,SystemResetWarning,0828.6,5.01,000.00,025.5,023.9,000.0,033.8,026.8,15.7,0000.0,0011.90,0006.06,0005.51
2023-12-07 01:15:00,SystemResetWarning,0828.6,5.01,000.00,025.5,024.1,000.0,033.8,026.9,15.7,0000.0,0011.79,0006.07,0005.53
2023-12-07 01:16:00,SystemResetWarning,0828.5,5.00,000.00,025.5,024.3,000.0,033.8,027.0,15.6,0000.0,0011.76,0006.06,0005.53
2023-12-07 01:17:00,SystemResetWarning,0828.5,5.00,000.00,025.5,024.4,000.0,033.8,027.0,15.5,0000.0,0011.10,0006.05,0005.52
2023-12-07 01:18:00,SystemResetWarning,0828.4,5.00,000.00,025.5,024.5,000.0,033.8,027.0,15.5,0000.0,0010.98,0005.99,0005.48
2023-12-07 01:19:00,SystemResetWarning,0828.5,5.00,000.00,025.6,024.6,000.0,033.8,027.1,15.5,0000.0,0010.24,0005.92,0005.45
2023-12-07 01:20:00,SystemResetWarning,0828.5,5.00,000.00,025.6,024.6,000.0,033.8,027.1,15.4,0000.0,0009.95,0005.86,0005.41
2023-12-07 01:21:00,SystemResetWarning,0828.5,5.01,000.00,025.6,024.7,000.0,033.8,027.1,15.4,0000.0,0011.02,0005.88,0005.38
2023-12-07 01:22:00,SystemResetWarning,0828.4,5.00,000.00,025.6,024.8,000.0,033.8,027.2,15.4,0000.0,0010.95,0005.88,0005.35
2023-12-07 01:23:00,SystemResetWarning,0828.4,5.01,000.00,025.7,024.8,000.0,033.8,027.2,15.4,0000.0,0011.30,0005.84,0005.33
2023-12-07 01:24:00,SystemResetWarning,0828.4,5.00,000.00,025.7,024.9,000.0,033.9,027.2,15.3,0000.0,0011.42,0005.85,0005.34
2023-12-07 01:25:00,SystemResetWarning,0828.4,5.00,000.00,025.7,024.9,000.0,033.9,027.3,14.8,0000.0,0011.13,0005.84,0005.35
2023-12-07 01:26:00,SystemResetWarning,0828.5,5.01,000.00,025.8,025.0,000.0,033.9,027.3,14.7,0000.0,0010.98,0005.84,0005.36
2023-12-07 01:27:00,SystemResetWarning,0828.6,5.00,000.00,025.8,025.0,000.0,033.9,027.3,14.8,0000.0,0010.91,0005.86,0005.37
2023-12-07 01:28:00,SystemResetWarning,0828.5,5.00,000.00,025.8,025.0,000.0,033.9,027.3,15.2,0000.0,0010.87,0005.85,0005.38
2023-12-07 01:29:00,SystemResetWarning,0828.5,5.00,000.00,025.8,025.0,000.0,033.9,027.3,15.2,0000.0,0010.86,0005.83,0005.39
2023-12-07 01:30:00,SystemResetWarning,0828.4,4.99,000.00,025.8,025.1,000.0,034.0,027.3,14.9,0000.0,0011.58,0005.82,0005.37
2023-12-07 01:31:00,SystemResetWarning,0828.4,5.00,000.00,025.9,025.1,000.0,034.0,027.4,14.9,0000.0,0011.75,0005.83,0005.37
2023-12-07 01:32:00,SystemResetWarning,0828.4,5.00,000.00,025.9,025.1,000.0,034.0,027.4,15.1,0000.0,0011.10,0005.83,0005.38
2023-12-07 01:33:00,SystemResetWarning,0828.4,5.00,000.00,025.9,025.2,000.0,034.0,027.4,14.7,0000.0,0010.57,0005.83,0005.39
2023-12-07 01:34:00,SystemResetWarning,0828.4,5.00,000.00,025.9,025.2,000.0,034.1,027.4,14.4,0000.0,0010.39,0005.86,0005.41
2023-12-07 01:35:00,SystemResetWarning,0828.4,5.00,000.00,026.0,025.2,000.0,034.1,027.4,14.1,0000.0,0010.16,0005.86,0005.40
2023-12-07 01:36:00,SystemResetWarning,0828.4,5.00,000.00,026.0,025.2,000.0,034.1,027.5,14.1,0000.0,0010.24,0005.86,0005.37
2023-12-07 01:37:00,SystemResetWarning,0828.4,4.99,000.00,026.0,025.3,000.0,034.1,027.5,14.6,0000.0,0010.22,0005.85,0005.37
2023-12-07 01:38:00,SystemResetWarning,0828.4,4.99,000.00,026.0,025.3,000.0,034.1,027.5,14.9,0000.0,0010.13,0005.84,0005.38
2023-12-07 01:39:00,SystemResetWarning,0828.4,4.99,000.00,026.0,024.4,000.0,034.1,027.5,15.0,0000.0,0010.27,0005.82,0005.38
2023-12-07 01:40:00,SystemResetWarning,0828.4,5.01,000.00,025.9,022.3,000.0,034.1,027.2,14.8,0000.0,0011.15,0005.83,0005.39
2023-12-07 01:41:00,SystemResetWarning,0828.4,5.01,000.00,025.8,021.7,000.0,034.0,026.9,14.7,0000.0,0010.70,0005.87,0005.42
2023-12-07 01:42:00,SystemResetWarning,0828.3,5.01,000.00,025.6,022.0,000.0,034.0,026.4,14.8,0000.0,0010.48,0005.91,0005.46
2023-12-07 01:43:00,SystemResetWarning,0828.4,5.00,000.00,025.5,022.4,000.0,033.9,026.4,15.1,0000.0,0010.36,0005.87,0005.44
2023-12-07 01:44:00,SystemResetWarning,0828.4,4.98,000.00,025.4,022.8,000.0,033.9,026.5,15.2,0000.0,0010.51,0005.80,0005.37
2023-12-07 01:45:00,SystemResetWarning,0828.3,5.00,000.00,025.4,023.1,000.0,033.9,026.6,15.1,0000.0,0010.78,0005.69,0005.29
2023-12-07 01:46:00,SystemResetWarning,0828.3,5.02,000.00,025.4,023.4,000.0,033.8,026.6,15.0,0000.0,0010.50,0005.60,0005.24
2023-12-07 01:47:00,SystemResetWarning,0828.3,5.00,000.00,025.4,023.6,000.0,033.8,026.7,14.9,0000.0,0010.46,0005.62,0005.28
2023-12-07 01:48:00,SystemResetWarning,0828.3,4.99,000.00,025.4,023.8,000.0,033.8,026.8,14.8,0000.0,0010.65,0005.68,0005.32
2023-12-07 01:49:00,SystemResetWarning,0828.3,5.00,000.00,025.4,024.0,000.0,033.8,026.8,14.7,0000.0,0010.73,0005.72,0005.34
2023-12-07 01:50:00,SystemResetWarning,0828.3,5.00,000.00,025.4,024.1,000.0,033.7,026.9,14.6,0000.0,0010.83,0005.78,0005.36
2023-12-07 01:51:00,SystemResetWarning,0828.3,5.00,000.00,025.4,024.3,000.0,033.7,026.9,14.6,0000.0,0010.43,0005.84,0005.38
2023-12-07 01:52:00,SystemResetWarning,0828.3,5.00,000.00,025.5,024.4,000.0,033.7,027.0,14.5,0000.0,0010.54,0005.84,0005.37
2023-12-07 01:53:00,SystemResetWarning,0828.2,5.00,000.00,025.5,024.4,000.0,033.7,027.0,14.3,0000.0,0010.77,0005.89,0005.38
2023-12-07 01:54:00,SystemResetWarning,0828.2,5.00,000.00,025.5,024.5,000.0,033.8,027.0,14.2,0000.0,0010.89,0005.91,0005.40
2023-12-07 01:55:00,SystemResetWarning,0828.2,5.00,000.00,025.5,024.6,000.0,033.8,027.1,14.0,0000.0,0010.92,0005.95,0005.43
2023-12-07 01:56:00,SystemResetWarning,0828.1,4.99,000.00,025.6,024.7,000.0,033.8,027.1,13.8,0000.0,0010.70,0006.00,0005.48
2023-12-07 01:57:00,SystemResetWarning,0828.1,4.99,000.00,025.6,024.7,000.0,033.8,027.1,13.8,0000.0,0010.77,0006.05,0005.50
2023-12-07 01:58:00,SystemResetWarning,0828.0,5.00,000.00,025.6,024.7,000.0,033.8,027.1,13.7,0000.0,0011.20,0005.98,0005.44
2023-12-07 01:59:00,SystemResetWarning,0828.1,5.01,000.00,025.6,024.8,000.0,033.8,027.1,13.8,0000.0,0011.35,0005.94,0005.38
